Simultaneous Nadir Overpasses (SNOs) Predictions

Prediction of SNOs between GOES-15 and NPP Satellite Orbit:

Table of predicted SNOs for the next 14.0 days since TLE Epoch: 8/10/2024
Index Date Time (GOES-15) GOES-15 Lat,Lon NPP Lat,Lon Distance(km) Time Diff (sec)
1 08/10/2024 09:17:55 -0.42, 61.62 -0.28, 62.10 55.64 80
2 08/12/2024 21:20:57 0.42, 61.79 0.49, 61.37 46.90 80
3 08/13/2024 20:59:33 0.40, 61.83 -0.52, 65.90 464.41 80
4 08/15/2024 09:21:29 -0.42, 61.82 -0.71, 60.60 139.04 80
5 08/16/2024 09:05:25 -0.41, 61.86 0.31, 65.13 372.60 80
6 08/17/2024 21:27:12 0.42, 62.00 0.89, 59.87 242.36 80
7 08/18/2024 21:05:48 0.41, 62.04 -0.13, 64.40 268.36 80
8 08/20/2024 09:27:44 -0.42, 62.05 -1.07, 59.09 337.05 80
9 08/21/2024 09:11:39 -0.41, 62.10 -0.05, 63.62 174.56 80
10 08/22/2024 21:33:26 0.42, 62.22 1.28, 58.37 439.31 80
11 08/23/2024 21:12:01 0.42, 62.27 0.25, 62.89 71.37 80
